Time,TemperatureF,DewpointF,PressureIn,WindDirection,WindDirectionDegrees,WindSpeedMPH,WindSpeedGustMPH,Humidity,HourlyPrecipIn,Conditions,Clouds,dailyrainin,SolarRadiationWatts/m^2,SoftwareType,DateUTC
2013-05-13 00:01:00,53.0,25.0,-100.00,WNW,301,7.0,16.0,34,0.00,,,0.04,143.000000,,2013-05-13 00:01:00,
2013-05-13 00:11:00,53.0,25.0,-100.00,WNW,301,7.0,16.0,34,0.00,,,0.04,143.000000,,2013-05-13 00:11:00,
2013-05-13 00:42:00,50.0,25.0,-100.00,West,281,3.0,12.0,37,0.00,,,0.03,53.000000,,2013-05-13 00:42:00,
2013-05-13 00:52:00,50.0,25.0,-100.00,West,281,3.0,12.0,37,0.00,,,0.03,53.000000,,2013-05-13 00:52:00,
2013-05-13 01:01:00,50.0,25.0,-100.00,West,281,3.0,12.0,37,0.00,,,0.03,53.000000,,2013-05-13 01:01:00,
2013-05-13 01:11:00,50.0,25.0,-100.00,West,281,3.0,12.0,37,0.00,,,0.03,53.000000,,2013-05-13 01:11:00,
2013-05-13 01:42:00,42.0,31.0,-100.00,ESE,116,0.0,7.0,64,0.00,,,0.03,1.000000,,2013-05-13 01:42:00,
2013-05-13 01:52:00,42.0,31.0,-100.00,ESE,116,0.0,7.0,64,0.00,,,0.03,1.000000,,2013-05-13 01:52:00,
2013-05-13 02:02:00,42.0,31.0,-100.00,ESE,116,0.0,7.0,64,0.00,,,0.03,1.000000,,2013-05-13 02:02:00,
2013-05-13 02:11:00,42.0,31.0,-100.00,ESE,116,0.0,7.0,64,0.00,,,0.03,1.000000,,2013-05-13 02:11:00,
2013-05-13 02:32:00,40.0,34.0,-100.00,NNE,27,0.0,0.0,79,0.00,,,0.03,0.000000,,2013-05-13 02:32:00,
2013-05-13 02:42:00,40.0,34.0,-100.00,NNE,27,0.0,0.0,79,0.00,,,0.03,0.000000,,2013-05-13 02:42:00,
2013-05-13 02:52:00,40.0,34.0,-100.00,NNE,27,0.0,0.0,79,0.00,,,0.03,0.000000,,2013-05-13 02:52:00,
2013-05-13 03:02:00,40.0,34.0,-100.00,NNE,27,0.0,0.0,79,0.00,,,0.03,0.000000,,2013-05-13 03:02:00,
2013-05-13 03:11:00,40.0,34.0,-100.00,NNE,27,0.0,0.0,79,0.00,,,0.03,0.000000,,2013-05-13 03:11:00,
2013-05-13 03:42:00,39.0,34.0,-100.00,ESE,103,0.0,2.0,82,0.00,,,0.03,0.000000,,2013-05-13 03:42:00,
2013-05-13 03:53:00,39.0,34.0,-100.00,ESE,103,0.0,2.0,82,0.00,,,0.03,0.000000,,2013-05-13 03:53:00,
2013-05-13 04:03:00,39.0,34.0,-100.00,ESE,103,0.0,2.0,82,0.00,,,0.03,0.000000,,2013-05-13 04:03:00,
2013-05-13 04:12:00,39.0,34.0,-100.00,ESE,103,0.0,2.0,82,0.00,,,0.03,0.000000,,2013-05-13 04:12:00,
2013-05-13 04:42:00,40.0,36.0,-100.00,SE,125,1.0,4.0,86,0.00,,,0.03,0.000000,,2013-05-13 04:42:00,
2013-05-13 04:53:00,40.0,36.0,-100.00,SE,125,1.0,4.0,86,0.00,,,0.03,0.000000,,2013-05-13 04:53:00,
2013-05-13 05:02:00,40.0,36.0,-100.00,SE,125,1.0,4.0,86,0.00,,,0.03,0.000000,,2013-05-13 05:02:00,
2013-05-13 05:12:00,40.0,36.0,-100.00,SE,125,1.0,4.0,86,0.00,,,0.03,0.000000,,2013-05-13 05:12:00,
2013-05-13 05:42:00,38.0,34.0,-100.00,East,83,0.0,0.0,87,0.00,,,0.03,0.000000,,2013-05-13 05:42:00,
2013-05-13 05:52:00,38.0,34.0,-100.00,East,83,0.0,0.0,87,0.00,,,0.03,0.000000,,2013-05-13 05:52:00,
2013-05-13 06:01:00,38.0,34.0,-100.00,East,83,0.0,0.0,87,0.00,,,0.03,0.000000,,2013-05-13 06:01:00,
2013-05-13 06:12:00,38.0,34.0,-100.00,East,83,0.0,0.0,87,0.00,,,0.03,0.000000,,2013-05-13 06:12:00,
2013-05-13 06:42:00,39.0,36.0,-100.00,SSE,165,1.0,4.0,90,0.00,,,0.03,0.000000,,2013-05-13 06:42:00,
2013-05-13 06:52:00,39.0,36.0,-100.00,SSE,165,1.0,4.0,90,0.00,,,0.03,0.000000,,2013-05-13 06:52:00,
2013-05-13 07:01:00,39.0,36.0,-100.00,SSE,165,1.0,4.0,90,0.00,,,0.03,0.000000,,2013-05-13 07:01:00,
2013-05-13 07:11:00,39.0,36.0,-100.00,SSE,165,1.0,4.0,90,0.00,,,0.03,0.000000,,2013-05-13 07:11:00,
2013-05-13 07:42:00,40.0,38.0,-100.00,NW,315,1.0,2.0,91,0.00,,,0.02,0.000000,,2013-05-13 07:42:00,
2013-05-13 07:52:00,40.0,38.0,-100.00,NW,315,1.0,2.0,91,0.00,,,0.02,0.000000,,2013-05-13 07:52:00,
2013-05-13 08:02:00,40.0,38.0,-100.00,NW,315,1.0,2.0,91,0.00,,,0.02,0.000000,,2013-05-13 08:02:00,
2013-05-13 08:11:00,40.0,38.0,-100.00,NW,315,1.0,2.0,91,0.00,,,0.02,0.000000,,2013-05-13 08:11:00,
2013-05-13 08:42:00,40.0,38.0,-100.00,ENE,58,0.0,1.0,92,0.00,,,0.02,0.000000,,2013-05-13 08:42:00,
2013-05-13 08:52:00,40.0,38.0,-100.00,ENE,58,0.0,1.0,92,0.00,,,0.02,0.000000,,2013-05-13 08:52:00,
2013-05-13 09:01:00,40.0,38.0,-100.00,ENE,58,0.0,1.0,92,0.00,,,0.02,0.000000,,2013-05-13 09:01:00,
2013-05-13 09:11:00,40.0,38.0,-100.00,ENE,58,0.0,1.0,92,0.00,,,0.02,0.000000,,2013-05-13 09:11:00,
2013-05-13 09:42:00,40.0,38.0,-100.00,NW,319,1.0,4.0,93,0.00,,,0.02,0.000000,,2013-05-13 09:42:00,
2013-05-13 09:52:00,40.0,38.0,-100.00,NW,319,1.0,4.0,93,0.00,,,0.02,0.000000,,2013-05-13 09:52:00,
2013-05-13 10:03:00,40.0,38.0,-100.00,NW,319,1.0,4.0,93,0.00,,,0.02,0.000000,,2013-05-13 10:03:00,
2013-05-13 10:12:00,40.0,38.0,-100.00,NW,319,1.0,4.0,93,0.00,,,0.02,0.000000,,2013-05-13 10:12:00,
2013-05-13 10:33:00,38.0,36.0,-100.00,East,83,1.0,3.0,92,0.00,,,0.01,0.000000,,2013-05-13 10:33:00,
2013-05-13 10:43:00,38.0,36.0,-100.00,East,83,1.0,3.0,92,0.00,,,0.01,0.000000,,2013-05-13 10:43:00,
2013-05-13 10:53:00,38.0,36.0,-100.00,East,83,1.0,3.0,92,0.00,,,0.01,0.000000,,2013-05-13 10:53:00,
2013-05-13 11:03:00,38.0,36.0,-100.00,East,83,1.0,3.0,92,0.00,,,0.01,0.000000,,2013-05-13 11:03:00,
2013-05-13 11:12:00,38.0,36.0,-100.00,East,83,1.0,3.0,92,0.00,,,0.01,0.000000,,2013-05-13 11:12:00,
2013-05-13 11:32:00,40.0,37.0,-100.00,East,81,1.0,3.0,89,0.00,,,0.01,16.000000,,2013-05-13 11:32:00,
2013-05-13 11:42:00,40.0,37.0,-100.00,East,81,1.0,3.0,89,0.00,,,0.01,16.000000,,2013-05-13 11:42:00,
2013-05-13 11:52:00,40.0,37.0,-100.00,East,81,1.0,3.0,89,0.00,,,0.01,16.000000,,2013-05-13 11:52:00,
2013-05-13 12:02:00,40.0,37.0,-100.00,East,81,1.0,3.0,89,0.00,,,0.01,16.000000,,2013-05-13 12:02:00,
2013-05-13 12:12:00,40.0,37.0,-100.00,East,81,1.0,3.0,89,0.00,,,0.01,16.000000,,2013-05-13 12:12:00,
2013-05-13 12:42:00,42.0,38.0,-100.00,SW,218,2.0,6.0,85,0.00,,,0.01,67.000000,,2013-05-13 12:42:00,
2013-05-13 12:52:00,42.0,38.0,-100.00,SW,218,2.0,6.0,85,0.00,,,0.01,67.000000,,2013-05-13 12:52:00,
2013-05-13 13:01:00,42.0,38.0,-100.00,SW,218,2.0,6.0,85,0.00,,,0.01,67.000000,,2013-05-13 13:01:00,
2013-05-13 13:11:00,42.0,38.0,-100.00,SW,218,2.0,6.0,85,0.00,,,0.01,67.000000,,2013-05-13 13:11:00,
2013-05-13 13:42:00,45.0,35.0,-100.00,West,269,5.0,9.0,68,0.00,,,0.01,172.000000,,2013-05-13 13:42:00,
2013-05-13 13:52:00,45.0,35.0,-100.00,West,269,5.0,9.0,68,0.00,,,0.01,172.000000,,2013-05-13 13:52:00,
2013-05-13 14:02:00,45.0,35.0,-100.00,West,269,5.0,9.0,68,0.00,,,0.01,172.000000,,2013-05-13 14:02:00,
2013-05-13 14:11:00,45.0,35.0,-100.00,West,269,5.0,9.0,68,0.00,,,0.01,172.000000,,2013-05-13 14:11:00,
2013-05-13 14:42:00,50.0,28.0,-100.00,WSW,241,4.0,9.0,43,0.00,,,0.00,559.000000,,2013-05-13 14:42:00,
2013-05-13 14:52:00,50.0,28.0,-100.00,WSW,241,4.0,9.0,43,0.00,,,0.00,559.000000,,2013-05-13 14:52:00,
2013-05-13 15:01:00,50.0,28.0,-100.00,WSW,241,4.0,9.0,43,0.00,,,0.00,559.000000,,2013-05-13 15:01:00,
2013-05-13 15:11:00,50.0,28.0,-100.00,WSW,241,4.0,9.0,43,0.00,,,0.00,559.000000,,2013-05-13 15:11:00,
2013-05-13 15:42:00,49.0,25.0,-100.00,West,267,6.0,16.0,39,0.00,,,0.00,587.000000,,2013-05-13 15:42:00,
2013-05-13 15:53:00,49.0,25.0,-100.00,West,267,6.0,16.0,39,0.00,,,0.00,587.000000,,2013-05-13 15:53:00,
2013-05-13 16:03:00,49.0,25.0,-100.00,West,267,6.0,16.0,39,0.00,,,0.00,587.000000,,2013-05-13 16:03:00,
2013-05-13 16:12:00,49.0,25.0,-100.00,West,267,6.0,16.0,39,0.00,,,0.00,587.000000,,2013-05-13 16:12:00,
2013-05-13 16:34:00,51.0,27.0,-100.00,NNW,329,3.0,11.0,39,0.00,,,0.00,316.000000,,2013-05-13 16:34:00,
2013-05-13 16:43:00,51.0,27.0,-100.00,NNW,329,3.0,11.0,39,0.00,,,0.00,316.000000,,2013-05-13 16:43:00,
2013-05-13 16:53:00,51.0,27.0,-100.00,NNW,329,3.0,11.0,39,0.00,,,0.00,316.000000,,2013-05-13 16:53:00,
2013-05-13 17:02:00,51.0,27.0,-100.00,NNW,329,3.0,11.0,39,0.00,,,0.00,316.000000,,2013-05-13 17:02:00,
2013-05-13 17:12:00,51.0,27.0,-100.00,NNW,329,3.0,11.0,39,0.00,,,0.00,316.000000,,2013-05-13 17:12:00,
2013-05-13 17:42:00,51.0,23.0,-100.00,WNW,284,8.0,22.0,33,0.00,,,0.00,436.000000,,2013-05-13 17:42:00,
2013-05-13 17:54:00,51.0,23.0,-100.00,WNW,284,8.0,22.0,33,0.00,,,0.00,436.000000,,2013-05-13 17:54:00,
2013-05-13 18:04:00,51.0,23.0,-100.00,WNW,284,8.0,22.0,33,0.00,,,0.00,436.000000,,2013-05-13 18:04:00,
2013-05-13 18:13:00,51.0,23.0,-100.00,WNW,284,8.0,22.0,33,0.00,,,0.00,436.000000,,2013-05-13 18:13:00,
2013-05-13 18:42:00,51.0,24.0,-100.00,North,7,5.0,16.0,35,0.00,,,0.00,599.000000,,2013-05-13 18:42:00,
2013-05-13 18:52:00,51.0,24.0,-100.00,North,7,5.0,16.0,35,0.00,,,0.00,599.000000,,2013-05-13 18:52:00,
2013-05-13 19:01:00,51.0,24.0,-100.00,North,7,5.0,16.0,35,0.00,,,0.00,599.000000,,2013-05-13 19:01:00,
2013-05-13 19:12:00,51.0,24.0,-100.00,North,7,5.0,16.0,35,0.00,,,0.00,599.000000,,2013-05-13 19:12:00,
2013-05-13 19:44:00,55.0,31.0,-100.00,NW,305,4.0,16.0,40,0.00,,,0.00,577.000000,,2013-05-13 19:44:00,
2013-05-13 19:53:00,55.0,31.0,-100.00,NW,305,4.0,16.0,40,0.00,,,0.00,577.000000,,2013-05-13 19:53:00,
2013-05-13 20:02:00,55.0,31.0,-100.00,NW,305,4.0,16.0,40,0.00,,,0.00,577.000000,,2013-05-13 20:02:00,
2013-05-13 20:11:00,55.0,31.0,-100.00,NW,305,4.0,16.0,40,0.00,,,0.00,577.000000,,2013-05-13 20:11:00,
2013-05-13 20:34:00,54.0,23.0,-100.00,WNW,282,9.0,16.0,30,0.00,,,0.00,408.000000,,2013-05-13 20:34:00,
2013-05-13 20:44:00,54.0,23.0,-100.00,WNW,282,9.0,16.0,30,0.00,,,0.00,408.000000,,2013-05-13 20:44:00,
2013-05-13 20:53:00,54.0,23.0,-100.00,WNW,282,9.0,16.0,30,0.00,,,0.00,408.000000,,2013-05-13 20:53:00,
2013-05-13 21:03:00,54.0,23.0,-100.00,WNW,282,9.0,16.0,30,0.00,,,0.00,408.000000,,2013-05-13 21:03:00,
2013-05-13 21:14:00,54.0,23.0,-100.00,WNW,282,9.0,16.0,30,0.00,,,0.00,408.000000,,2013-05-13 21:14:00,
2013-05-13 21:44:00,54.0,31.0,-100.00,WNW,301,4.0,20.0,41,0.00,,,0.00,304.000000,,2013-05-13 21:44:00,
2013-05-13 21:53:00,54.0,31.0,-100.00,WNW,301,4.0,20.0,41,0.00,,,0.00,304.000000,,2013-05-13 21:53:00,
2013-05-13 22:03:00,54.0,31.0,-100.00,WNW,301,4.0,20.0,41,0.00,,,0.00,304.000000,,2013-05-13 22:03:00,
2013-05-13 22:12:00,54.0,31.0,-100.00,WNW,301,4.0,20.0,41,0.00,,,0.00,304.000000,,2013-05-13 22:12:00,
2013-05-13 22:43:00,50.0,29.0,-100.00,West,264,5.0,14.0,44,0.00,,,0.00,123.000000,,2013-05-13 22:43:00,
2013-05-13 22:52:00,50.0,29.0,-100.00,West,264,5.0,14.0,44,0.00,,,0.00,123.000000,,2013-05-13 22:52:00,
2013-05-13 23:02:00,50.0,29.0,-100.00,West,264,5.0,14.0,44,0.00,,,0.00,123.000000,,2013-05-13 23:02:00,
2013-05-13 23:13:00,50.0,29.0,-100.00,West,264,5.0,14.0,44,0.00,,,0.00,123.000000,,2013-05-13 23:13:00,
2013-05-13 23:42:00,51.0,34.0,-100.00,South,169,2.0,9.0,52,0.00,,,0.00,167.000000,,2013-05-13 23:42:00,
2013-05-13 23:54:00,51.0,34.0,-100.00,South,169,2.0,9.0,52,0.00,,,0.00,167.000000,,2013-05-13 23:54:00,